,,PA_Meas_PMT16A,,PR_Meas_QMR101_102,,RH_Meas_QMH101,,SR_Meas_QMS101,,TA_Meas_QMH101,,GenWind,,GenWind,
time,status,PA,status,PR,status,RH,status,SR,status,TA,status,DirAvg,status,SpdAvg,
2010-04-18, 00:00:04,VALID,919.722,VALID,0,VALID,97.351,VALID,0,VALID,20.0928,VALID,331,VALID,0.844141,
2010-04-18, 00:01:04,VALID,919.728,VALID,0,VALID,97.3281,VALID,0,VALID,20.0523,VALID,331,VALID,0.869922,
2010-04-18, 00:02:04,VALID,919.691,VALID,0,VALID,97.351,VALID,0,VALID,20.0328,VALID,331,VALID,0.571094,
2010-04-18, 00:03:04,VALID,919.68,VALID,0,VALID,97.351,VALID,0,VALID,20.0538,VALID,331,VALID,0.789063,
2010-04-18, 00:04:04,VALID,919.7,VALID,0,VALID,97.351,VALID,0,VALID,20.0538,VALID,331,VALID,0.287109,
2010-04-18, 00:05:04,VALID,919.688,VALID,0,VALID,97.3663,VALID,0,VALID,20.0928,VALID,331,VALID,0,
2010-04-18, 00:06:04,VALID,919.709,VALID,0,VALID,97.351,VALID,0,VALID,20.1318,VALID,331,VALID,0.0863281,
2010-04-18, 00:07:04,VALID,919.714,VALID,0,VALID,97.3815,VALID,0,VALID,20.1318,VALID,331,VALID,0.381641,
2010-04-18, 00:08:04,VALID,919.723,VALID,0,VALID,97.3434,VALID,0.107441,VALID,20.1318,VALID,331,VALID,0.54375,
2010-04-18, 00:09:04,VALID,919.714,VALID,0,VALID,97.3739,VALID,0,VALID,20.0733,VALID,331,VALID,0.796875,
2010-04-18, 00:10:04,VALID,919.719,VALID,0,VALID,97.3815,VALID,0,VALID,20.0718,VALID,331,VALID,0.705469,
2010-04-18, 00:11:04,VALID,919.722,VALID,0,VALID,97.3663,VALID,0,VALID,20.0733,VALID,331,VALID,0.996484,
2010-04-18, 00:12:04,VALID,919.727,VALID,0,VALID,97.3739,VALID,0,VALID,20.0523,VALID,331,VALID,0.846484,
2010-04-18, 00:13:04,VALID,919.693,VALID,0,VALID,97.3739,VALID,0,VALID,20.0928,VALID,331,VALID,0.416016,
2010-04-18, 00:14:04,VALID,919.652,VALID,0,VALID,97.3968,VALID,0,VALID,20.1123,VALID,331,VALID,0,
2010-04-18, 00:15:04,VALID,919.643,VALID,0,VALID,97.3891,VALID,0,VALID,20.1318,VALID,331,VALID,0,
2010-04-18, 00:16:04,VALID,919.589,VALID,0,VALID,97.3815,VALID,0,VALID,20.1123,VALID,331,VALID,0,
2010-04-18, 00:17:04,VALID,919.593,VALID,0,VALID,97.3739,VALID,0,VALID,20.0928,VALID,331,VALID,0,
2010-04-18, 00:18:04,VALID,919.561,VALID,0,VALID,97.3663,VALID,0,VALID,20.0343,VALID,331,VALID,0,
2010-04-18, 00:19:04,VALID,919.565,VALID,0,VALID,97.3663,VALID,0.107441,VALID,19.9758,VALID,331,VALID,0,
2010-04-18, 00:20:04,VALID,919.561,VALID,0,VALID,97.3739,VALID,0,VALID,19.9158,VALID,331,VALID,0.406641,
2010-04-18, 00:21:04,VALID,919.578,VALID,0,VALID,97.3968,VALID,0,VALID,19.9938,VALID,331,VALID,0.517969,
2010-04-18, 00:22:04,VALID,919.616,VALID,0,VALID,97.4044,VALID,0,VALID,19.9548,VALID,331,VALID,0.505859,
2010-04-18, 00:23:04,VALID,919.622,VALID,0,VALID,97.3968,VALID,0,VALID,19.8588,VALID,331,VALID,0.756641,
2010-04-18, 00:24:04,VALID,919.631,VALID,0,VALID,97.3891,VALID,0,VALID,19.7808,VALID,331,VALID,1.27031,
2010-04-18, 00:25:04,VALID,919.653,VALID,0,VALID,97.412,VALID,0,VALID,19.7793,VALID,331,VALID,0.935156,
2010-04-18, 00:26:04,VALID,919.679,VALID,0,VALID,97.4044,VALID,0.107441,VALID,19.7988,VALID,332,VALID,0.634375,
2010-04-18, 00:27:04,VALID,919.675,VALID,0,VALID,97.4273,VALID,0,VALID,19.8198,VALID,332,VALID,0.982813,
2010-04-18, 00:28:04,VALID,919.672,VALID,0,VALID,97.4349,VALID,0,VALID,19.8963,VALID,332,VALID,1.46367,
2010-04-18, 00:29:04,VALID,919.665,VALID,0,VALID,97.4349,VALID,0.107441,VALID,19.8963,VALID,333,VALID,1.07578,
2010-04-18, 00:30:04,VALID,919.68,VALID,0,VALID,97.4577,VALID,0.107441,VALID,19.9548,VALID,130,VALID,1.52891,
2010-04-18, 00:31:04,VALID,919.656,VALID,0,VALID,97.4654,VALID,0,VALID,19.9368,VALID,135,VALID,1.21797,
2010-04-18, 00:32:04,VALID,919.666,VALID,0,VALID,97.4501,VALID,0.107441,VALID,19.9368,VALID,135,VALID,1.125,
2010-04-18, 00:33:04,VALID,919.645,VALID,0,VALID,97.4577,VALID,0.107441,VALID,19.9563,VALID,135,VALID,1.24766,
2010-04-18, 00:34:04,VALID,919.635,VALID,0,VALID,97.4654,VALID,0,VALID,19.9938,VALID,146,VALID,1.45313,
2010-04-18, 00:35:04,VALID,919.612,VALID,0,VALID,97.4501,VALID,0.107441,VALID,20.0928,VALID,131,VALID,1.3918,
2010-04-18, 00:36:04,VALID,919.609,VALID,0,VALID,97.4501,VALID,0.107441,VALID,20.1318,VALID,99,VALID,0.802344,
2010-04-18, 00:37:04,VALID,919.591,VALID,0,VALID,97.4654,VALID,0,VALID,20.1318,VALID,131,VALID,0.932422,
2010-04-18, 00:38:04,VALID,919.609,VALID,0,VALID,97.4806,VALID,0,VALID,20.1513,VALID,131,VALID,1.1457,
2010-04-18, 00:39:04,VALID,919.607,VALID,0,VALID,97.4654,VALID,0,VALID,20.1708,VALID,131,VALID,1.02344,
2010-04-18, 00:40:04,VALID,919.589,VALID,0,VALID,97.4501,VALID,0,VALID,20.1903,VALID,131,VALID,1.11914,
2010-04-18, 00:41:04,VALID,919.598,VALID,0,VALID,97.4577,VALID,0,VALID,20.1903,VALID,131,VALID,1.13359,
2010-04-18, 00:42:04,VALID,919.584,VALID,0,VALID,97.4806,VALID,0,VALID,20.2098,VALID,131,VALID,1.22656,
2010-04-18, 00:43:04,VALID,919.574,VALID,0,VALID,97.4882,VALID,0,VALID,20.2293,VALID,131,VALID,0.94375,
2010-04-18, 00:44:04,VALID,919.569,VALID,0,VALID,97.4654,VALID,0,VALID,20.2489,VALID,131,VALID,1.33438,
2010-04-18, 00:45:04,VALID,919.584,VALID,0,VALID,97.4806,VALID,0,VALID,20.2489,VALID,131,VALID,1.00352,
2010-04-18, 00:46:04,VALID,919.565,VALID,0,VALID,97.4806,VALID,0,VALID,20.2489,VALID,131,VALID,0.9875,
2010-04-18, 00:47:04,VALID,919.565,VALID,0,VALID,97.4577,VALID,0,VALID,20.2684,VALID,131,VALID,1.05664,
2010-04-18, 00:48:04,VALID,919.582,VALID,0,VALID,97.4882,VALID,0.107441,VALID,20.2473,VALID,131,VALID,0.903125,
2010-04-18, 00:49:04,VALID,919.519,VALID,0,VALID,97.4882,VALID,0,VALID,20.2684,VALID,131,VALID,0.856641,
2010-04-18, 00:50:04,VALID,919.542,VALID,0,VALID,97.4806,VALID,0.107441,VALID,20.2684,VALID,107,VALID,1.35938,
2010-04-18, 00:51:04,VALID,919.504,VALID,0,VALID,97.4882,VALID,0.107441,VALID,20.2879,VALID,116,VALID,1.06445,
2010-04-18, 00:52:04,VALID,919.47,VALID,0,VALID,97.473,VALID,0,VALID,20.3074,VALID,118,VALID,1.10586,
2010-04-18, 00:53:04,VALID,919.401,VALID,0,VALID,97.4654,VALID,0.107441,VALID,20.3074,VALID,130,VALID,0.803516,
2010-04-18, 00:54:04,VALID,919.348,VALID,0,VALID,97.4882,VALID,0,VALID,20.3269,VALID,131,VALID,0.872656,
2010-04-18, 00:55:04,VALID,919.321,VALID,0,VALID,97.4882,VALID,0,VALID,20.3253,VALID,132,VALID,1.37891,
2010-04-18, 00:56:04,VALID,919.283,VALID,0,VALID,97.4806,VALID,0,VALID,20.3659,VALID,133,VALID,1.6582,
2010-04-18, 00:57:04,VALID,919.261,VALID,0,VALID,97.4501,VALID,0,VALID,20.3659,VALID,130,VALID,1.0625,
2010-04-18, 00:58:04,VALID,919.266,VALID,0,VALID,97.4882,VALID,0,VALID,20.3464,VALID,133,VALID,0.878906,
2010-04-18, 00:59:04,VALID,919.203,VALID,0,VALID,97.473,VALID,0,VALID,20.3448,VALID,132,VALID,1.30352,
2010-04-18, 01:00:04,VALID,919.202,VALID,0,VALID,97.4806,VALID,0,VALID,20.3448,VALID,132,VALID,0.666797,
2010-04-18, 01:01:04,VALID,919.239,VALID,0,VALID,97.4806,VALID,0,VALID,20.3659,VALID,132,VALID,1.13359,
2010-04-18, 01:02:04,VALID,919.199,VALID,0,VALID,97.4882,VALID,0,VALID,20.3448,VALID,119,VALID,0.833984,
2010-04-18, 01:03:04,VALID,919.141,VALID,0,VALID,97.4882,VALID,0.107441,VALID,20.3253,VALID,109,VALID,1.07461,
2010-04-18, 01:04:04,VALID,919.121,VALID,0,VALID,97.4806,VALID,0,VALID,20.3253,VALID,109,VALID,0.817578,
2010-04-18, 01:05:04,VALID,919.113,VALID,0,VALID,97.4959,VALID,0,VALID,20.3464,VALID,109,VALID,0.390234,
2010-04-18, 01:06:04,VALID,919.068,VALID,0,VALID,97.4959,VALID,0.107441,VALID,20.3464,VALID,109,VALID,0.297266,
2010-04-18, 01:07:04,VALID,919.026,VALID,0,VALID,97.4882,VALID,0,VALID,20.3659,VALID,109,VALID,0.466797,
2010-04-18, 01:08:04,VALID,918.985,VALID,0,VALID,97.4959,VALID,0,VALID,20.3659,VALID,109,VALID,0.769922,
2010-04-18, 01:09:04,VALID,918.969,VALID,0,VALID,97.4882,VALID,0,VALID,20.3269,VALID,109,VALID,0.869531,
2010-04-18, 01:10:04,VALID,918.967,VALID,0,VALID,97.4806,VALID,0,VALID,20.3464,VALID,109,VALID,0.385547,
2010-04-18, 01:11:04,VALID,918.94,VALID,0,VALID,97.4806,VALID,0,VALID,20.3253,VALID,109,VALID,0.215625,
2010-04-18, 01:12:04,VALID,918.928,VALID,0,VALID,97.4882,VALID,0,VALID,20.3269,VALID,109,VALID,0.0527344,
2010-04-18, 01:13:04,VALID,918.95,VALID,0,VALID,97.4959,VALID,0,VALID,20.2863,VALID,109,VALID,0.157422,
2010-04-18, 01:14:04,VALID,918.934,VALID,0,VALID,97.5111,VALID,0.107441,VALID,20.3074,VALID,109,VALID,0.0667969,
2010-04-18, 01:15:04,VALID,918.927,VALID,0,VALID,97.4882,VALID,0,VALID,20.3269,VALID,109,VALID,0.246484,
2010-04-18, 01:16:04,VALID,918.897,VALID,0,VALID,97.4959,VALID,0,VALID,20.3058,VALID,109,VALID,0.266406,
2010-04-18, 01:17:04,VALID,918.892,VALID,0,VALID,97.4959,VALID,0.107441,VALID,20.2863,VALID,109,VALID,0,
2010-04-18, 01:18:04,VALID,918.871,VALID,0,VALID,97.4882,VALID,0,VALID,20.2863,VALID,109,VALID,0,
2010-04-18, 01:19:04,VALID,918.869,VALID,0,VALID,97.5111,VALID,0,VALID,20.2668,VALID,109,VALID,0,
2010-04-18, 01:20:04,VALID,918.858,VALID,0,VALID,97.4959,VALID,0,VALID,20.2879,VALID,109,VALID,0,
2010-04-18, 01:21:04,VALID,918.872,VALID,0,VALID,97.5035,VALID,0.107441,VALID,20.2879,VALID,109,VALID,0.471484,
2010-04-18, 01:22:04,VALID,918.914,VALID,0.2,VALID,97.4959,VALID,0,VALID,20.2293,VALID,109,VALID,0.625,
2010-04-18, 01:23:04,VALID,918.921,VALID,0,VALID,97.4882,VALID,0,VALID,20.1708,VALID,109,VALID,0.578125,
2010-04-18, 01:24:04,VALID,918.926,VALID,0,VALID,97.5035,VALID,0,VALID,20.1708,VALID,109,VALID,0.489844,
2010-04-18, 01:25:04,VALID,918.953,VALID,0,VALID,97.5035,VALID,0,VALID,20.1303,VALID,109,VALID,0.421094,
2010-04-18, 01:26:04,VALID,918.917,VALID,0,VALID,97.5111,VALID,0.107441,VALID,20.1513,VALID,109,VALID,0.0539063,
2010-04-18, 01:27:04,VALID,918.911,VALID,0,VALID,97.5264,VALID,0,VALID,20.1513,VALID,109,VALID,0.796875,
2010-04-18, 01:28:04,VALID,918.876,VALID,0,VALID,97.5187,VALID,0,VALID,20.1513,VALID,109,VALID,0.83125,
2010-04-18, 01:29:04,VALID,918.839,VALID,0,VALID,97.5264,VALID,0,VALID,20.1318,VALID,109,VALID,0.741797,
2010-04-18, 01:30:04,VALID,918.784,VALID,0,VALID,97.5264,VALID,0.107441,VALID,20.0928,VALID,109,VALID,1.02188,
2010-04-18, 01:31:04,VALID,918.742,VALID,0,VALID,97.5111,VALID,0,VALID,19.9953,VALID,109,VALID,1.20313,
2010-04-18, 01:32:04,VALID,918.714,VALID,0,VALID,97.5416,VALID,0,VALID,19.9758,VALID,109,VALID,1.08984,
2010-04-18, 01:33:04,VALID,918.694,VALID,0,VALID,97.5264,VALID,0,VALID,19.9758,VALID,108,VALID,0.774219,
2010-04-18, 01:34:04,VALID,918.66,VALID,0,VALID,97.5264,VALID,0,VALID,19.9953,VALID,108,VALID,0.401953,
2010-04-18, 01:35:04,VALID,918.684,VALID,0,VALID,97.534,VALID,0,VALID,20.0343,VALID,108,VALID,0.0878906,
2010-04-18, 01:36:04,VALID,918.67,VALID,0,VALID,97.5187,VALID,0,VALID,20.0733,VALID,108,VALID,0.33125,
2010-04-18, 01:37:04,VALID,918.675,VALID,0,VALID,97.5492,VALID,0.107441,VALID,20.0718,VALID,108,VALID,0.279687,
2010-04-18, 01:38:04,VALID,918.667,VALID,0,VALID,97.5569,VALID,0,VALID,20.0913,VALID,108,VALID,0.294922,
2010-04-18, 01:39:04,VALID,918.651,VALID,0,VALID,97.534,VALID,0,VALID,20.0913,VALID,108,VALID,0.607813,
2010-04-18, 01:40:04,VALID,918.65,VALID,0,VALID,97.5645,VALID,0,VALID,20.0928,VALID,108,VALID,0.575,
2010-04-18, 01:41:04,VALID,918.589,VALID,0,VALID,97.5721,VALID,0,VALID,20.0733,VALID,108,VALID,0.536328,
2010-04-18, 01:42:04,VALID,918.602,VALID,0,VALID,97.5492,VALID,0,VALID,20.0328,VALID,108,VALID,0.873047,
2010-04-18, 01:43:04,VALID,918.593,VALID,0,VALID,97.5492,VALID,0,VALID,20.0148,VALID,108,VALID,1.12383,
2010-04-18, 01:44:04,VALID,918.576,VALID,0,VALID,97.5721,VALID,0,VALID,19.9743,VALID,108,VALID,0.870313,
2010-04-18, 01:45:04,VALID,918.59,VALID,0,VALID,97.5569,VALID,0,VALID,19.9758,VALID,108,VALID,0.45625,
2010-04-18, 01:46:04,VALID,918.594,VALID,0,VALID,97.5797,VALID,0,VALID,19.9953,VALID,108,VALID,0.149219,
2010-04-18, 01:47:04,VALID,918.533,VALID,0,VALID,97.5645,VALID,0,VALID,20.0133,VALID,108,VALID,0,
2010-04-18, 01:48:04,VALID,918.501,VALID,0,VALID,97.5645,VALID,0,VALID,20.0538,VALID,108,VALID,0,
2010-04-18, 01:49:04,VALID,918.431,VALID,0,VALID,97.5569,VALID,0,VALID,20.0148,VALID,108,VALID,0,
2010-04-18, 01:50:04,VALID,918.404,VALID,0,VALID,97.5492,VALID,0,VALID,20.0148,VALID,108,VALID,0.442187,
2010-04-18, 01:51:04,VALID,918.379,VALID,0,VALID,97.5645,VALID,0,VALID,19.9563,VALID,108,VALID,0.6625,
2010-04-18, 01:52:04,VALID,918.357,VALID,0,VALID,97.5645,VALID,0,VALID,19.8978,VALID,108,VALID,0.677734,
2010-04-18, 01:53:04,VALID,918.354,VALID,0,VALID,97.5797,VALID,0,VALID,19.8588,VALID,108,VALID,0.728516,
2010-04-18, 01:54:04,VALID,918.339,VALID,0,VALID,97.5721,VALID,0,VALID,19.8003,VALID,108,VALID,0.717578,
2010-04-18, 01:55:04,VALID,918.34,VALID,0,VALID,97.5873,VALID,0,VALID,19.7598,VALID,108,VALID,0.796875,
2010-04-18, 01:56:04,VALID,918.324,VALID,0,VALID,97.5873,VALID,0,VALID,19.7613,VALID,108,VALID,0.605469,
2010-04-18, 01:57:04,VALID,918.297,VALID,0,VALID,97.595,VALID,0,VALID,19.7628,VALID,108,VALID,0.645312,
2010-04-18, 01:58:04,VALID,918.262,VALID,0,VALID,97.6026,VALID,0,VALID,19.7223,VALID,108,VALID,0.71875,
2010-04-18, 01:59:04,VALID,918.243,VALID,0,VALID,97.6026,VALID,0,VALID,19.7028,VALID,108,VALID,0.804297,
2010-04-18, 02:00:04,VALID,918.216,VALID,0,VALID,97.5873,VALID,0,VALID,19.6833,VALID,108,VALID,0.969922,
2010-04-18, 02:01:04,VALID,918.236,VALID,0,VALID,97.6026,VALID,0,VALID,19.6833,VALID,108,VALID,0.898828,
2010-04-18, 02:02:04,VALID,918.18,VALID,0,VALID,97.595,VALID,0,VALID,19.6833,VALID,109,VALID,0.890234,
2010-04-18, 02:03:04,VALID,918.172,VALID,0,VALID,97.6255,VALID,0,VALID,19.6638,VALID,109,VALID,0.990234,
2010-04-18, 02:04:04,VALID,918.16,VALID,0,VALID,97.6255,VALID,0,VALID,19.6833,VALID,109,VALID,1.05039,
2010-04-18, 02:05:04,VALID,918.198,VALID,0,VALID,97.6255,VALID,0,VALID,19.6833,VALID,110,VALID,1.18633,
2010-04-18, 02:06:04,VALID,918.15,VALID,0,VALID,97.6255,VALID,0,VALID,19.6833,VALID,110,VALID,0.883203,
2010-04-18, 02:07:04,VALID,918.148,VALID,0,VALID,97.6255,VALID,0,VALID,19.6833,VALID,111,VALID,0.75625,
2010-04-18, 02:08:04,VALID,918.142,VALID,0,VALID,97.6331,VALID,0,VALID,19.6833,VALID,112,VALID,0.820703,
2010-04-18, 02:09:04,VALID,918.135,VALID,0,VALID,97.6255,VALID,0,VALID,19.6833,VALID,113,VALID,1.04922,
2010-04-18, 02:10:04,VALID,918.095,VALID,0,VALID,97.6255,VALID,0,VALID,19.6833,VALID,115,VALID,1.02422,
2010-04-18, 02:11:04,VALID,918.076,VALID,0,VALID,97.6331,VALID,0,VALID,19.6638,VALID,116,VALID,1.13867,
2010-04-18, 02:12:04,VALID,918.062,VALID,0,VALID,97.6407,VALID,0,VALID,19.6848,VALID,117,VALID,0.719922,
2010-04-18, 02:13:04,VALID,918.053,VALID,0,VALID,97.6331,VALID,0,VALID,19.6833,VALID,117,VALID,0.672266,
2010-04-18, 02:14:04,VALID,918.011,VALID,0,VALID,97.6407,VALID,0,VALID,19.6623,VALID,117,VALID,0.733203,
2010-04-18, 02:15:04,VALID,917.991,VALID,0,VALID,97.6331,VALID,0,VALID,19.6833,VALID,117,VALID,0.657422,
2010-04-18, 02:16:04,VALID,917.987,VALID,0,VALID,97.6483,VALID,0,VALID,19.7028,VALID,118,VALID,0.769141,
2010-04-18, 02:17:04,VALID,917.947,VALID,0,VALID,97.6331,VALID,0,VALID,19.7223,VALID,118,VALID,0.887109,
2010-04-18, 02:18:04,VALID,917.943,VALID,0,VALID,97.6483,VALID,0,VALID,19.7433,VALID,118,VALID,0.977344,
2010-04-18, 02:19:04,VALID,917.933,VALID,0,VALID,97.6407,VALID,0,VALID,19.7418,VALID,118,VALID,0.703125,
2010-04-18, 02:20:04,VALID,917.943,VALID,0,VALID,97.6636,VALID,0,VALID,19.7223,VALID,118,VALID,0.401953,
2010-04-18, 02:21:04,VALID,917.938,VALID,0,VALID,97.6407,VALID,0,VALID,19.7223,VALID,118,VALID,0.417188,
2010-04-18, 02:22:04,VALID,917.951,VALID,0,VALID,97.6407,VALID,0,VALID,19.7223,VALID,118,VALID,0.0570313,
2010-04-18, 02:23:04,VALID,917.959,VALID,0,VALID,97.656,VALID,0,VALID,19.7613,VALID,118,VALID,0.412891,
2010-04-18, 02:24:04,VALID,917.947,VALID,0,VALID,97.6483,VALID,0,VALID,19.7418,VALID,118,VALID,0.557422,
2010-04-18, 02:25:04,VALID,917.97,VALID,0,VALID,97.6407,VALID,0,VALID,19.7418,VALID,118,VALID,0.272266,
2010-04-18, 02:26:04,VALID,917.967,VALID,0,VALID,97.6407,VALID,0,VALID,19.7418,VALID,118,VALID,0,
2010-04-18, 02:27:04,VALID,917.978,VALID,0,VALID,97.656,VALID,0,VALID,19.7418,VALID,118,VALID,0.637109,
2010-04-18, 02:28:04,VALID,917.974,VALID,0,VALID,97.656,VALID,0,VALID,19.7823,VALID,118,VALID,0.594922,
2010-04-18, 02:29:04,VALID,918.011,VALID,0,VALID,97.6483,VALID,0,VALID,19.7823,VALID,118,VALID,0.435547,
2010-04-18, 02:30:04,VALID,918.025,VALID,0,VALID,97.6407,VALID,0,VALID,19.7808,VALID,118,VALID,0,
2010-04-18, 02:31:04,VALID,918.047,VALID,0,VALID,97.6483,VALID,0,VALID,19.8213,VALID,118,VALID,0,
2010-04-18, 02:32:04,VALID,918.043,VALID,0,VALID,97.6483,VALID,0,VALID,19.8003,VALID,118,VALID,0,
2010-04-18, 02:33:04,VALID,918.059,VALID,0,VALID,97.6483,VALID,0,VALID,19.8003,VALID,118,VALID,0,
2010-04-18, 02:34:04,VALID,918.04,VALID,0,VALID,97.6636,VALID,0,VALID,19.7613,VALID,118,VALID,0,
2010-04-18, 02:35:04,VALID,917.986,VALID,0,VALID,97.6483,VALID,0,VALID,19.7223,VALID,118,VALID,0.096875,
2010-04-18, 02:36:04,VALID,918.01,VALID,0,VALID,97.656,VALID,0,VALID,19.7043,VALID,118,VALID,0.286328,
2010-04-18, 02:37:04,VALID,917.981,VALID,0,VALID,97.6865,VALID,0,VALID,19.6638,VALID,118,VALID,0.454688,
2010-04-18, 02:38:04,VALID,918.002,VALID,0,VALID,97.6712,VALID,0,VALID,19.6053,VALID,118,VALID,0.571094,
2010-04-18, 02:39:04,VALID,917.987,VALID,0,VALID,97.656,VALID,0,VALID,19.5663,VALID,118,VALID,0.548437,
2010-04-18, 02:40:04,VALID,917.954,VALID,0,VALID,97.6712,VALID,0,VALID,19.5273,VALID,118,VALID,0.567187,
2010-04-18, 02:41:04,VALID,917.94,VALID,0,VALID,97.6712,VALID,0,VALID,19.4688,VALID,118,VALID,0.891406,
2010-04-18, 02:42:04,VALID,917.92,VALID,0,VALID,97.6788,VALID,0,VALID,19.4493,VALID,118,VALID,0.778125,
2010-04-18, 02:43:04,VALID,917.922,VALID,0,VALID,97.6865,VALID,0,VALID,19.4298,VALID,118,VALID,0.979297,
2010-04-18, 02:44:04,VALID,917.922,VALID,0,VALID,97.6788,VALID,0,VALID,19.4298,VALID,118,VALID,0.707812,
2010-04-18, 02:45:04,VALID,917.865,VALID,0,VALID,97.6941,VALID,0,VALID,19.4298,VALID,118,VALID,0.488281,
2010-04-18, 02:46:04,VALID,917.87,VALID,0,VALID,97.6941,VALID,0,VALID,19.4493,VALID,118,VALID,0.0921875,
2010-04-18, 02:47:04,VALID,917.843,VALID,0,VALID,97.7017,VALID,0,VALID,19.4298,VALID,118,VALID,0,
2010-04-18, 02:48:04,VALID,917.807,VALID,0,VALID,97.7017,VALID,0,VALID,19.4688,VALID,118,VALID,0,
2010-04-18, 02:49:04,VALID,917.829,VALID,0,VALID,97.7017,VALID,0,VALID,19.4898,VALID,118,VALID,0,
2010-04-18, 02:50:04,VALID,917.802,VALID,0,VALID,97.7093,VALID,0,VALID,19.4688,VALID,118,VALID,0,
2010-04-18, 02:51:04,VALID,917.835,VALID,0,VALID,97.7093,VALID,0,VALID,19.4688,VALID,118,VALID,0,
2010-04-18, 02:52:04,VALID,917.861,VALID,0,VALID,97.7169,VALID,0,VALID,19.4688,VALID,118,VALID,0.339453,
2010-04-18, 02:53:04,VALID,917.861,VALID,0,VALID,97.6941,VALID,0,VALID,19.5093,VALID,118,VALID,0.366797,
2010-04-18, 02:54:04,VALID,917.835,VALID,0,VALID,97.7093,VALID,0,VALID,19.5078,VALID,118,VALID,0.183594,
2010-04-18, 02:55:04,VALID,917.825,VALID,0,VALID,97.7093,VALID,0,VALID,19.5078,VALID,118,VALID,0.439063,
2010-04-18, 02:56:04,VALID,917.811,VALID,0,VALID,97.7093,VALID,0,VALID,19.4883,VALID,118,VALID,0.732813,
2010-04-18, 02:57:04,VALID,917.831,VALID,0,VALID,97.6865,VALID,0,VALID,19.4298,VALID,118,VALID,0.575391,
2010-04-18, 02:58:04,VALID,917.798,VALID,0,VALID,97.6941,VALID,0,VALID,19.3713,VALID,118,VALID,0.358594,
2010-04-18, 02:59:04,VALID,917.812,VALID,0,VALID,97.6941,VALID,0,VALID,19.2933,VALID,118,VALID,0.452734,
2010-04-18, 03:00:04,VALID,917.812,VALID,0,VALID,97.6941,VALID,0,VALID,19.2348,VALID,118,VALID,0.387109,
2010-04-18, 03:01:04,VALID,917.826,VALID,0,VALID,97.7246,VALID,0,VALID,19.2153,VALID,118,VALID,0.194531,
2010-04-18, 03:02:04,VALID,917.838,VALID,0,VALID,97.7169,VALID,0,VALID,19.1958,VALID,118,VALID,0.153906,
2010-04-18, 03:03:04,VALID,917.789,VALID,0,VALID,97.7322,VALID,0,VALID,19.2348,VALID,118,VALID,0.05625,
2010-04-18, 03:04:04,VALID,917.795,VALID,0,VALID,97.7169,VALID,0,VALID,19.2334,VALID,118,VALID,0.150781,
2010-04-18, 03:05:04,VALID,917.803,VALID,0,VALID,97.7474,VALID,0,VALID,19.2543,VALID,118,VALID,0.370703,
2010-04-18, 03:06:04,VALID,917.808,VALID,0,VALID,97.7474,VALID,0,VALID,19.2153,VALID,118,VALID,0.616797,
2010-04-18, 03:07:04,VALID,917.806,VALID,0,VALID,97.7322,VALID,0,VALID,19.1763,VALID,118,VALID,0.801953,
2010-04-18, 03:08:04,VALID,917.778,VALID,0,VALID,97.7246,VALID,0.107441,VALID,19.1373,VALID,118,VALID,0.749609,
2010-04-18, 03:09:04,VALID,917.792,VALID,0,VALID,97.7551,VALID,0,VALID,19.1568,VALID,118,VALID,0.857031,
2010-04-18, 03:10:04,VALID,917.778,VALID,0,VALID,97.7474,VALID,0,VALID,19.1373,VALID,118,VALID,1.02188,
2010-04-18, 03:11:04,VALID,917.795,VALID,0,VALID,97.7322,VALID,0.107441,VALID,19.1193,VALID,118,VALID,1,
2010-04-18, 03:12:04,VALID,917.779,VALID,0,VALID,97.7627,VALID,0,VALID,19.1178,VALID,118,VALID,0.936719,
2010-04-18, 03:13:04,VALID,917.737,VALID,0,VALID,97.7322,VALID,0,VALID,19.1373,VALID,118,VALID,0.739844,
2010-04-18, 03:14:04,VALID,917.773,VALID,0,VALID,97.7474,VALID,0,VALID,19.1763,VALID,118,VALID,0.782422,
2010-04-18, 03:15:04,VALID,917.803,VALID,0,VALID,97.7551,VALID,0,VALID,19.2363,VALID,118,VALID,0.851953,
2010-04-18, 03:16:04,VALID,917.784,VALID,0,VALID,97.7779,VALID,0,VALID,19.2348,VALID,118,VALID,0.597656,
2010-04-18, 03:17:04,VALID,917.785,VALID,0,VALID,97.7703,VALID,0,VALID,19.2543,VALID,118,VALID,0.532422,
2010-04-18, 03:18:04,VALID,917.792,VALID,0,VALID,97.7474,VALID,0,VALID,19.2753,VALID,118,VALID,0.702734,
2010-04-18, 03:19:04,VALID,917.794,VALID,0,VALID,97.7703,VALID,0,VALID,19.2948,VALID,118,VALID,0.956641,
2010-04-18, 03:20:04,VALID,917.794,VALID,0,VALID,97.7474,VALID,0,VALID,19.2738,VALID,118,VALID,0.903906,
2010-04-18, 03:21:04,VALID,917.761,VALID,0,VALID,97.7551,VALID,0,VALID,19.2753,VALID,118,VALID,0.657031,
2010-04-18, 03:22:04,VALID,917.771,VALID,0,VALID,97.7779,VALID,0,VALID,19.2948,VALID,118,VALID,0.774609,
2010-04-18, 03:23:04,VALID,917.787,VALID,0,VALID,97.7703,VALID,0,VALID,19.2753,VALID,118,VALID,0.873828,
2010-04-18, 03:24:04,VALID,917.769,VALID,0,VALID,97.7627,VALID,0,VALID,19.2738,VALID,118,VALID,0.862891,
2010-04-18, 03:25:04,VALID,917.779,VALID,0,VALID,97.7551,VALID,0,VALID,19.2948,VALID,118,VALID,0.588281,
2010-04-18, 03:26:04,VALID,917.758,VALID,0,VALID,97.7627,VALID,0,VALID,19.2738,VALID,118,VALID,0.600781,
2010-04-18, 03:27:04,VALID,917.76,VALID,0,VALID,97.7474,VALID,0,VALID,19.2543,VALID,118,VALID,0.741797,
2010-04-18, 03:28:04,VALID,917.736,VALID,0,VALID,97.7779,VALID,0,VALID,19.2738,VALID,118,VALID,0.723828,
2010-04-18, 03:29:04,VALID,917.752,VALID,0,VALID,97.7627,VALID,0,VALID,19.2933,VALID,118,VALID,0.578125,
2010-04-18, 03:30:04,VALID,917.757,VALID,0,VALID,97.7703,VALID,0,VALID,19.3338,VALID,118,VALID,0.179688,
2010-04-18, 03:31:04,VALID,917.731,VALID,0,VALID,97.7779,VALID,0,VALID,19.3338,VALID,118,VALID,0.303516,
2010-04-18, 03:32:04,VALID,917.71,VALID,0,VALID,97.7703,VALID,0,VALID,19.3728,VALID,118,VALID,0.222266,
2010-04-18, 03:33:04,VALID,917.725,VALID,0,VALID,97.7703,VALID,0,VALID,19.3908,VALID,118,VALID,0.190625,
2010-04-18, 03:34:04,VALID,917.726,VALID,0,VALID,97.7322,VALID,0,VALID,19.4508,VALID,118,VALID,0.178125,
2010-04-18, 03:35:04,VALID,917.721,VALID,0,VALID,97.7474,VALID,0,VALID,19.4703,VALID,118,VALID,0.0539063,
2010-04-18, 03:36:04,VALID,917.757,VALID,0,VALID,97.7398,VALID,0,VALID,19.4898,VALID,118,VALID,0,
2010-04-18, 03:37:04,VALID,917.734,VALID,0,VALID,97.7551,VALID,0,VALID,19.5093,VALID,118,VALID,0,
2010-04-18, 03:38:04,VALID,917.744,VALID,0,VALID,97.7474,VALID,0,VALID,19.4883,VALID,118,VALID,0.814453,
2010-04-18, 03:39:04,VALID,917.749,VALID,0,VALID,97.7474,VALID,0,VALID,19.4703,VALID,118,VALID,1.01523,
2010-04-18, 03:40:04,VALID,917.759,VALID,0,VALID,97.7551,VALID,0,VALID,19.4688,VALID,119,VALID,1.35117,
2010-04-18, 03:41:04,VALID,917.752,VALID,0,VALID,97.7551,VALID,0,VALID,19.4493,VALID,119,VALID,1.03633,
2010-04-18, 03:42:04,VALID,917.776,VALID,0,VALID,97.7398,VALID,0,VALID,19.4703,VALID,119,VALID,1.16836,
2010-04-18, 03:43:04,VALID,917.79,VALID,0,VALID,97.7474,VALID,0,VALID,19.4493,VALID,119,VALID,0.830078,
2010-04-18, 03:44:04,VALID,917.745,VALID,0,VALID,97.7551,VALID,0,VALID,19.4703,VALID,119,VALID,1.05586,